Location: Unspecified
(0.0000°N, 0.0000°E)
Time: 23:03:14
(UTC+02:00)

Meteor PRIRODA - Visible Passes

Search period start: 05 July 2015 00:00
Search period end: 15 July 2015 00:00
Orbit: 501 x 524 km, 97.4° (Epoch: 04 July)

Date Brightness Start Highest point End Pass type
(mag) Time Alt. Az. Time Alt. Az. Time Alt. Az.
05 Jul 3.8 06:37:37 10° N 06:41:18 51° W 06:41:36 49° W visible
06 Jul 3.6 06:21:46 10° NNE 06:25:32 84° E 06:25:37 83° SE visible
07 Jul 4.7 06:06:09 10° NNE 06:09:37 44° E 06:09:37 44° E visible
08 Jul 5.9 05:50:53 10° NE 05:53:37 24° E 05:53:37 24° E visible
09 Jul 6.7 05:36:09 10° ENE 05:37:36 14° E 05:37:36 14° E visible
09 Jul 5.3 07:09:32 10° NW 07:12:04 17° W 07:12:32 16° W visible
10 Jul 4.6 06:52:54 10° NNW 06:56:14 28° W 06:56:32 28° W visible
11 Jul 3.8 06:36:44 10° N 06:40:26 52° W 06:40:31 52° W visible
12 Jul 3.7 06:20:51 10° NNE 06:24:30 80° ENE 06:24:30 80° ENE visible
13 Jul 4.9 06:05:14 10° NNE 06:08:28 42° E 06:08:28 42° E visible
14 Jul 6.0 05:49:56 10° NE 05:52:27 23° E 05:52:27 23° E visible
